アトラス彗星

C/2024 C4 ( ATLAS )

English version
Home page
Updated on May 21, 2024

---------------------------------------------------------------------

・ プロフィール

発見日 2024年2月14日
発見光度 17.4等
発見者 Asteroid Terrestrial-Impact Last Alert System (ATLAS) search program

・ 写真集

・ 軌道要素

Epoch 2024 Mar. 31.0 TT = JDT 2460400.5
T 2024 Jan. 30.19707 TT                                 Rudenko
q   1.4712442            (2000.0)            P               Q
z  +0.0119409      Peri.  321.52239     -0.66904475     -0.37695680
 +/-0.0000043      Node   220.68470     -0.14456666     -0.77936647
e   0.9824320      Incl.   79.28667     -0.72902648     +0.50049124
>From 445 observations 2024 Feb. 14-May 14, mean residual 0".7.

・ 星図

・ 光度変化

        m1 = 13.5 + 5 logΔ + 10.0 log r

---------------------------------------------------------------------

軌道要素はM.P.E.C. 2024-J304に掲載されたものです。
星図はステラナビゲータ Ver.11 (アストロアーツ) で作成したものです。
光度グラフはComet for Windowsで作成したものです。

---------------------------------------------------------------------

Copyright(C) Seiichi Yoshida (comet@aerith.net). All rights reserved.